Weather in Vskhody

Russia / Smolensk Oblast     54°40′07″N   34°05′51″E
temp.,
°C
wind,
m/s
gust,
m/s
humid.,
%
clouds,
%
prec.,
mm/h
press.,
hPa
HPBL,
m
11 april, sun
sun1100:00+4s311755 0.0 1025253
03:00+2ssw311795 0.0 1026239
06:00+2ssw28845 0.0 1026156
09:00+7ssw36634 0.0 1028279
12:00+13ssw35490 0.0 1028845
15:00+15ssw34435 0.0 10281373
18:00+13s23540 0.0 102999
21:00+8sse22700 0.0 103011
12 april, mon
mon1200:00+6se22760 0.0 103226
03:00+5ese22790 0.0 103215
06:00+4e238316 0.0 103258
09:00+8ese496394 0.0 1031412
12:00+12ese5840100 0.0 1029917
15:00+13ese5852100 0.0 10271022
18:00+10ese3879100 0.6 1026614
21:00+8e2893100 0.6 1026202
13 april, tue
tue1300:00+7e2696100 0.0 1025115
03:00+7e229699 0.0 102431
06:00+7e2395100 0.0 102349
09:00+11ese2380100 0.0 1023182
12:00+15sse2563100 0.0 1022581
15:00+18s3552100 0.0 10221160
18:00+16ese1164100 0.1 102014
21:00+12se287794 0.2 1021158
14 april, wed
wed1400:00+10se298287 0.0 1021191
03:00+8se298299 0.0 1020177
06:00+8se2985100 0.0 1019185
09:00+12sse3977100 0.0 1019474
12:00+16sse4859100 0.0 10181287
15:00+16s366199 0.4 10181021
18:00+14e1169100 0.2 101612
21:00+12nnw1180100 0.6 101711
15 april, thu
thu1500:00+10w2592100 0.1 1017137
03:00+10e2488100 0.6 101783
06:00+8sse119272 0.0 101712
09:00+11s2379100 0.0 1017326
12:00+14sse2459100 0.4 1016682
15:00+15ese335796 0.7 10161199
18:00+14e256789 0.1 1016394
21:00+10nne388893 0.1 1017208